EW2281 Weather Reports


time (UTC)temp
F
wind
direction
speed
knots
gust
knots
rain 1hr
in
rain 24hr
in
rain mn
in
humidity
%
barometer
mb
20260503200325 59 187 1.7 7.8 0.00 0.00 0.00 38 967.9
20260503200048 59 331 1.7 6.1 0.00 0.00 0.00 42 967.9
20260503195324 58 214 1.7 6.1 0.00 0.00 0.00 43 968.0
20260503194825 58 317 2.6 7.8 0.00 0.00 0.00 44 968.1
20260503194324 57 322 2.6 7.8 0.00 0.00 0.00 40 968.2
20260503193824 58 238 1.7 7.8 0.00 0.00 0.00 39 968.2
20260503193813 58 236 1.7 6.1 0.00 0.00 0.00 40 968.3
20260503192826 58 273 1.7 5.2 0.00 0.00 0.00 41 968.3
20260503192543 57 207 2.6 7.0 0.00 0.00 0.00 41 968.3
20260503191825 58 235 2.6 7.8 0.00 0.00 0.00 39 968.4
20260503191324 58 10 1.7 7.8 0.00 0.00 0.00 44 968.4
20260503190825 57 35 1.7 6.1 0.00 0.00 0.00 42 968.3
20260503190326 57 291 2.6 7.8 0.00 0.00 0.00 41 968.6
20260503185824 58 345 2.6 7.8 0.00 0.00 0.00 42 968.6
20260503185324 58 55 2.6 7.8 0.00 0.00 0.00 42 968.7
20260503184824 57 298 1.7 7.8 0.00 0.00 0.00 43 968.7
20260503184324 57 229 2.6 7.8 0.00 0.00 0.00 43 968.7
20260503183825 57 323 1.7 7.0 0.00 0.00 0.00 43 968.8
20260503183325 56 300 1.7 6.1 0.00 0.00 0.00 42 968.8
20260503182824 57 295 2.6 7.8 0.00 0.00 0.00 48 968.9
20260503182322 56 281 2.6 8.7 0.00 0.00 0.00 47 968.9
20260503181823 56 24 2.6 8.7 0.00 0.00 0.00 42 969.0
20260503181324 56 317 1.7 7.0 0.00 0.00 0.00 43 968.9
20260503180823 56 292 2.6 11.3 0.00 0.00 0.00 45 968.9
20260503180324 56 59 3.5 14.8 0.00 0.00 0.00 40 968.9
20260503175820 57 325 2.6 14.8 0.00 0.00 0.00 43 969.0
20260503175322 56 298 2.6 9.6 0.00 0.00 0.00 47 969.1
20260503174820 56 280 2.6 8.7 0.00 0.00 0.00 45 969.1
20260503174759 56 334 1.7 8.7 0.00 0.00 0.00 48 969.2
20260503173818 55 40 0.9 4.3 0.00 0.00 0.00 47 969.2
20260503173318 55 234 1.7 8.7 0.00 0.00 0.00 47 969.2
20260503172813 55 342 2.6 8.7 0.00 0.00 0.00 43 969.2
20260503172758 56 288 2.6 10.4 0.00 0.00 0.00 45 969.3
20260503171807 55 150 2.6 10.4 0.00 0.00 0.00 45 969.2
20260503171307 55 23 2.6 10.4 0.00 0.00 0.00 46 969.2
20260503171029 54 232 2.6 10.4 0.00 0.00 0.00 44 969.4
20260503170305 54 81 1.7 8.7 0.00 0.00 0.00 46 969.3
20260503150707 49 63 1.7 9.6 0.00 0.00 0.00 53 970.5
20260503150202 49 234 2.6 9.6 0.00 0.00 0.00 54 970.4
20260503130949 43 299 0.9 6.1 0.00 0.00 0.00 67 970.8
20260503130444 43 36 0.9 5.2 0.00 0.00 0.00 69 970.9
20260503110331 35 277 0.0 0.0 0.00 0.00 0.00 83 970.2
20260503081306 37 42 0.0 2.6 0.00 0.00 0.00 76 969.1
20260503080803 37 282 0.0 0.0 0.00 0.00 0.00 76 969.1
20260503080302 37 89 0.0 3.5 0.00 0.00 0.00 76 969.0
20260503072251 37 38 0.9 5.2 0.00 0.00 0.00 75 968.9
20260503071751 38 351 0.9 5.2 0.00 0.00 0.00 74 968.9
20260503071246 37 46 0.0 3.5 0.00 0.00 0.00 75 968.9
20260503071005 38 26 0.0 3.5 0.00 0.00 0.00 74 968.9
20260503070455 37 327 0.0 2.6 0.00 0.00 0.00 75 968.9
20260503070335 38 49 0.9 3.5 0.00 0.00 0.00 74 968.9
20260503055004 39 32 0.0 2.6 0.00 0.00 0.00 72 968.9
20260503054223 39 306 0.0 2.6 0.00 0.00 0.00 72 969.0
20260503053716 39 344 0.0 0.0 0.00 0.00 0.00 72 968.9
20260503053210 39 286 0.0 0.0 0.00 0.00 0.00 72 969.0
20260503052920 39 283 0.0 0.0 0.00 0.01 0.00 71 969.0
20260503052416 39 273 0.0 0.0 0.00 0.01 0.00 71 969.0
20260503051652 39 267 0.0 0.0 0.00 0.02 0.00 72 969.0
20260503051145 40 265 0.0 0.0 0.00 0.02 0.00 73 969.1
20260503050640 40 265 0.0 0.0 0.00 0.03 0.00 73 969.1
20260503050134 40 265 0.0 0.0 0.00 0.03 0.00 72 969.2
20260503045628 40 268 0.0 0.0 0.00 0.03 0.00 73 969.1
20260503045121 40 265 0.0 0.0 0.00 0.03 0.00 73 969.2
20260503044837 40 265 0.0 0.0 0.00 0.03 0.00 75 969.2
20260503044330 40 265 0.0 0.0 0.00 0.03 0.00 74 969.2
20260503043604 40 265 0.0 0.0 0.00 0.03 0.00 75 969.1
20260503043058 40 265 0.0 3.5 0.00 0.03 0.00 73 969.2
20260503042552 40 252 0.0 3.5 0.00 0.03 0.00 71 969.2
20260503042046 40 32 0.0 0.0 0.00 0.04 0.00 77 969.2
20260503041540 40 290 0.0 0.0 0.00 0.05 0.00 74 969.2
20260503041034 40 290 0.0 0.0 0.00 0.05 0.00 75 969.2
20260503040528 40 290 0.0 0.0 0.00 0.06 0.00 74 969.2
20260503040238 41 290 0.0 0.0 0.00 0.07 0.00 73 969.2
20260503035514 41 290 0.0 0.0 0.00 0.08 0.08 73 969.2
20260503035008 41 290 0.0 0.9 0.00 0.08 0.08 73 969.3
20260503034502 41 290 0.0 0.9 0.00 0.08 0.08 70 969.3
20260503033956 41 290 0.0 1.7 0.00 0.08 0.08 71 969.3
20260503033708 41 290 0.0 1.7 0.00 0.08 0.08 71 969.4
20260503032944 41 55 0.0 0.0 0.00 0.08 0.08 71 969.4
20260503032438 42 55 0.0 1.7 0.00 0.08 0.08 71 969.4
20260503031932 42 32 0.0 1.7 0.00 0.08 0.08 71 969.5
20260503031656 42 33 0.0 1.7 0.00 0.08 0.08 71 969.6
20260503030919 41 285 0.0 0.0 0.00 0.08 0.08 73 969.5
20260503030642 42 315 0.0 0.0 0.00 0.08 0.08 74 969.5
20260503025908 42 315 0.0 0.0 0.00 0.08 0.08 73 969.5
20260503025401 42 269 0.0 0.0 0.00 0.08 0.08 74 969.5
20260503024856 42 304 0.0 0.0 0.00 0.08 0.08 72 969.5
20260503024349 42 256 0.0 0.0 0.00 0.08 0.08 73 969.6
20260503023842 42 288 0.0 0.0 0.00 0.08 0.08 73 969.5
20260503023336 42 289 0.0 0.0 0.00 0.08 0.08 73 969.6
20260503023052 42 296 0.0 0.9 0.00 0.08 0.08 73 969.6
20260503022324 42 296 0.0 0.9 0.00 0.08 0.08 72 969.6
20260503021818 42 295 0.0 0.9 0.00 0.08 0.08 73 969.6
20260503021312 42 302 0.0 0.9 0.00 0.08 0.08 74 969.6
20260503020806 42 300 0.0 1.7 0.00 0.08 0.08 75 969.6
20260503020259 42 302 0.0 2.6 0.00 0.08 0.08 75 969.5
20260503020022 42 313 0.0 2.6 0.00 0.08 0.08 76 969.5
20260503015248 42 281 0.0 1.7 0.00 0.08 0.08 76 969.4
20260503014742 42 291 0.0 1.7 0.00 0.08 0.08 77 969.4
20260503014236 42 273 0.0 1.7 0.00 0.08 0.08 79 969.4
20260503013730 42 38 0.0 2.6 0.00 0.08 0.08 79 969.4
20260503013224 42 289 0.0 2.6 0.00 0.08 0.08 79 969.4
20260503012718 42 302 0.0 1.7 0.00 0.08 0.08 79 969.4
20260503012212 42 304 0.0 1.7 0.00 0.08 0.08 79 969.3
20260503011706 42 294 0.0 0.9 0.00 0.08 0.08 79 969.3
20260503011200 42 300 0.0 1.7 0.00 0.08 0.08 79 969.2
20260503010654 42 300 0.0 1.7 0.00 0.08 0.08 80 969.2
20260503010148 42 329 0.0 0.0 0.00 0.08 0.08 81 969.2
20260503005642 42 329 0.0 0.0 0.00 0.08 0.08 80 969.1
20260503005136 43 329 0.0 1.7 0.00 0.08 0.08 79 969.1
20260503004630 43 300 0.0 4.3 0.00 0.08 0.08 79 969.1
20260503004124 43 177 0.0 4.3 0.00 0.08 0.08 79 969.0
20260503003835 43 303 0.0 0.0 0.00 0.08 0.08 81 968.9
20260503003112 43 328 0.0 0.0 0.00 0.09 0.08 80 968.9
20260503002606 43 300 0.0 0.0 0.00 0.09 0.08 80 968.8
20260503002059 43 298 0.0 0.0 0.00 0.09 0.08 80 968.7
20260503001554 43 298 0.0 0.0 0.00 0.09 0.08 79 968.8
20260503001047 43 311 0.0 0.9 0.00 0.09 0.08 79 968.8
20260503000541 43 298 0.0 1.7 0.00 0.09 0.08 78 968.8
20260503000036 44 298 0.0 1.7 0.00 0.10 0.08 77 968.8
20260502235529 44 305 0.0 1.7 0.00 0.10 0.08 77 968.8
20260502235024 44 282 0.0 0.9 0.00 0.10 0.08 77 968.7
20260502234518 44 39 0.0 0.0 0.00 0.11 0.08 79 968.6
20260502234012 44 32 0.0 1.7 0.00 0.11 0.08 78 968.7
20260502233506 44 32 0.0 1.7 0.00 0.11 0.08 78 968.7
20260502233217 44 39 0.0 1.7 0.00 0.11 0.08 77 968.7
20260502232455 44 22 0.0 0.0 0.00 0.11 0.08 76 968.6
20260502232214 44 23 0.0 2.6 0.00 0.11 0.08 76 968.6
20260502231442 44 22 0.9 2.6 0.00 0.11 0.08 76 968.6
20260502230936 44 340 0.9 5.2 0.00 0.11 0.08 76 968.5
20260502230429 45 23 0.9 5.2 0.00 0.11 0.08 75 968.5
20260502225924 45 276 0.0 1.7 0.00 0.11 0.08 75 968.5
20260502225418 45 345 0.0 1.7 0.00 0.11 0.08 75 968.5
20260502224912 45 13 0.0 0.0 0.00 0.11 0.08 74 968.5
20260502224406 45 288 0.0 1.7 0.00 0.11 0.08 75 968.4
20260502223900 45 289 0.0 3.5 0.00 0.11 0.08 74 968.4
20260502223354 45 294 0.0 3.5 0.00 0.11 0.08 73 968.4
20260502222847 45 299 0.0 0.9 0.00 0.11 0.08 75 968.4
20260502222342 45 290 0.0 0.9 0.00 0.11 0.08 73 968.4
20260502221843 46 30 0.0 0.0 0.00 0.11 0.08 74 968.3
20260502221339 46 315 0.0 0.0 0.00 0.11 0.08 74 968.4
20260502220839 46 285 0.0 0.0 0.00 0.11 0.08 75 968.4
20260502220339 46 317 0.0 0.9 0.00 0.11 0.08 75 968.4
20260502215839 46 304 0.0 3.5 0.00 0.11 0.08 75 968.4
20260502215337 46 32 0.9 4.3 0.00 0.11 0.08 76 968.4
20260502214836 45 40 0.9 4.3 0.00 0.11 0.08 76 968.4
20260502214336 45 256 0.9 3.5 0.00 0.11 0.08 77 968.4
20260502213833 45 338 0.0 0.0 0.00 0.11 0.08 79 968.3
20260502213552 45 349 0.9 2.6 0.00 0.12 0.08 78 968.3
20260502212832 45 10 0.9 2.6 0.00 0.12 0.08 78 968.3
20260502212332 44 35 0.0 2.6 0.00 0.12 0.08 79 968.3
20260502211832 44 305 0.0 2.6 0.00 0.12 0.08 78 968.3
20260502211331 44 19 0.0 1.7 0.00 0.12 0.08 78 968.3
20260502211313 45 41 0.0 0.9 0.00 0.12 0.08 79 968.3
20260502210554 45 304 0.0 0.9 0.00 0.12 0.08 79 968.2
20260502205827 45 19 0.0 0.9 0.00 0.12 0.08 79 968.2
20260502205325 45 254 0.0 4.3 0.00 0.12 0.08 78 968.2
20260502204824 45 94 0.9 4.3 0.00 0.13 0.08 77 968.3
20260502204322 45 306 0.9 3.5 0.00 0.13 0.08 77 968.3
20260502203823 45 27 0.9 3.5 0.00 0.13 0.08 77 968.3
20260502203321 45 38 1.7 6.1 0.00 0.13 0.08 77 968.2
20260502202821 45 348 1.7 6.1 0.00 0.14 0.08 76 968.3
20260502202546 45 343 0.9 5.2 0.00 0.14 0.08 76 968.2
20260502201821 45 54 0.9 3.5 0.00 0.14 0.08 77 968.3
20260502201322 45 296 0.9 7.8 0.00 0.15 0.08 76 968.3
20260502200822 45 346 1.7 7.8 0.00 0.16 0.08 76 968.2